Hors Challenge

Les Sommets De Franchimont - Theux (12.00 km)

dimanche 08 mars 2020

Vous pouvez trouver Le classement original sur : www.ecolelibretheux.be/jogging/
 
LES SOMMETS DE FRANCHIMONT - THEUX
DISTANCE : 12.00 km
dimanche 08 mars 2020
 
Place dos NOM Catégorie Pl/cat temps temps/km Vitesse
01:00:00              
1 669 GILLES AMAURY HOMME 1 0:40:51 03:24 17.63
2 622 DE FROIDMONT GUILLAUME HOMME 2 0:40:58 03:25 17.58
3 843 DUVIVIER ANTOINE HOMME 3 0:41:01 03:25 17.55
4 613 MONTULET RODRIGUE HOMME 4 0:43:12 03:36 16.67
5 660 PIERRON OLIVIER HOMME 5 0:44:16 03:41 16.27
6 648 MARTINEZ RAPHAEL HOMME 6 0:46:19 03:52 15.55
7 714 LARUE ARNAUD HOMME 7 0:46:42 03:54 15.42
8 754 STOLLENDERG JORDY HOMME 8 0:46:52 03:54 15.36
9 844 RENSONNET DENIS HOMME 9 0:46:57 03:55 15.34
10 819 HECK MARC HOMME 10 0:46:58 03:55 15.33
11 631 DEWEZ PIERRE HOMME 11 0:47:04 03:55 15.30
12 729 MOREAU BERNARD HOMME 12 0:47:11 03:56 15.26
13 693 MARTIN RENAUD DIT MOUTON HOMME 13 0:48:12 04:01 14.94
14 665 BREUER MARC HOMME 14 0:48:29 04:02 14.85
15 711 MELEN ARNAUD HOMME 15 0:48:47 04:04 14.76
16 718 BASTIN ROBERT HOMME 16 0:48:56 04:05 14.71
17 668 DAEL FABRICE HOMME 17 0:48:59 04:05 14.70
18 641 MARECHAL JEROME HOMME 18 0:49:02 04:05 14.68
19 683 LUXEN ANTOINE HOMME 19 0:49:08 04:06 14.65
20 816 BROCHARD VINCENT HOMME 20 0:49:17 04:06 14.61
21 637 GATHY GEO?REY HOMME 21 0:49:47 04:09 14.46
22 679 DUCKERS LUCAS HOMME 22 0:49:56 04:10 14.42
23 812 VITELLO CHRISTOPHE HOMME 23 0:49:59 04:10 14.40
24 737 SONTAG THIERRY HOMME 24 0:50:19 04:12 14.31
25 744 BUCHE AAAAAAAAAAAAAAAAAAA HOMME 25 0:50:32 04:13 14.25
26 643 MATHIEU DYLAN HOMME 26 0:50:41 04:13 14.21
27 741 REDING LE DINGUE ANTOINE HOMME 27 0:50:49 04:14 14.17
28 817 FISCHER RAPHAEL HOMME 28 0:51:08 04:16 14.08
29 762 DERU FABIAN HOMME 29 0:51:24 04:17 14.01
30 705 PEETERS OLIVIER HOMME 30 0:51:31 04:18 13.98
31 673 LECLUSE HERVE HOMME 31 0:51:35 04:18 13.96
32 680 DECKERS BERNARD HOMME 32 0:51:50 04:19 13.89
33 823 PHILIPPART FABIAN HOMME 33 0:52:19 04:22 13.76
34 614 MARION ROMAIN HOMME 34 0:53:04 04:25 13.57
35 639 DELICOUR VINCENT HOMME 35 0:53:09 04:26 13.55
36 804 DETROULEPONT NOE HOMME 36 0:53:26 04:27 13.47
37 607 LATHOUWERS WILLIAM HOMME 37 0:53:30 04:28 13.46
38 811 AGUS PAOLO HOMME 38 0:53:32 04:28 13.45
39 694 KAYE MAXIME HOMME 39 0:53:35 04:28 13.44
40 743 PAWELKOWSKI DAVID HOMME 40 0:53:37 04:28 13.43
41 678 BIERMANS PHILIPPE HOMME 41 0:53:40 04:28 13.42
42 742 LEJEUNE BERNIE HOMME 42 0:53:49 04:29 13.38
43 827 SELARD ELOISE DAME 1 0:53:51 04:29 13.37
44 618 COUMONT VALEN]N HOMME 43 0:54:13 04:31 13.28
45 636 CHARLIER CAROLINE DAME 2 0:54:23 04:32 13.24
46 749 DIET FABRICE HOMME 44 0:54:52 04:34 13.12
47 642 LARDINOIS PATRICK HOMME 45 0:54:59 04:35 13.09
48 698 DELOGE J-FRANÇOIS HOMME 46 0:55:05 04:35 13.07
49 692 BAUTE BENOIT HOMME 47 0:55:09 04:36 13.06
50 672 PINCKAERS CHRISTOPHE HOMME 48 0:55:11 04:36 13.05
51 685 NONDONFAZ XHAVIER HOMME 49 0:55:14 04:36 13.04
52 624 DUJARDIN PHILIPPE HOMME 50 0:55:26 04:37 12.99
53 813 NAHON CHRIS]AN HOMME 51 0:55:33 04:38 12.96
54 756 TEDESCO SALVATOR HOMME 52 0:55:35 04:38 12.95
55 671 GOBATTO MARIO HOMME 53 0:55:54 04:40 12.88
56 810 DEKROCK PHILIPPE HOMME 54 0:55:55 04:40 12.88
57 620 MALMENDIER GUILLAUME HOMME 55 0:56:09 04:41 12.82
58 837 DILS JOERI HOMME 56 0:56:16 04:41 12.80
59 644 SERVAIS NATHALIE DAME 3 0:56:29 04:42 12.75
60 653 JAMINON JEROME HOMME 57 0:56:53 04:44 12.66
61 686 CARABINE PHILIPPE HOMME 58 0:57:08 04:46 12.60
62 738 FAHY OLIVIER HOMME 59 0:57:16 04:46 12.57
63 763 ALBERT VALERIE DAME 4 0:57:23 04:47 12.55
64 800 MARTIN GILLES HOMME 60 0:57:33 04:48 12.51
65 716 SANGLIER KEVIN HOMME 61 0:57:34 04:48 12.51
66 757 GILARDINI PATRICE HOMME 62 0:57:36 04:48 12.50
67 761 LAMBERT CHRISTOPHE HOMME 63 0:57:41 04:48 12.48
68 638 GOEDERS CHARLY HOMME 64 0:57:43 04:49 12.47
69 664 BOUTET CEDRIC HOMME 65 0:57:47 04:49 12.46
70 708 WANSART NICOLAS HOMME 66 0:57:49 04:49 12.45
71 814 SCHWEYEN MAEVA DAME 5 0:57:52 04:49 12.44
72 807 CHALSECHE LEO HOMME 67 0:58:15 04:51 12.36
73 806 CHALSECHE STEPHANE HOMME 68 0:58:16 04:51 12.36
74 739 LOOZEN FREDERIC HOMME 69 0:58:19 04:52 12.35
75 752 SCHNALKERS GUILLAUME HOMME 70 0:58:21 04:52 12.34
76 717 HAVARD PHILIPPE HOMME 71 0:58:26 04:52 12.32
77 687 MULA SALVATORE HOMME 72 0:58:27 04:52 12.32
78 696 DEMOULIN ARTHUR HOMME 73 0:58:45 04:54 12.26
79 666 BRIXHE GERY HOMME 74 0:58:48 04:54 12.24
80 755 WINGTENS SOPHIE DAME 6 0:58:49 04:54 12.24
81 697 DEMOULIN CHRISTOPHE HOMME 75 0:58:51 04:54 12.23
82 628 LONNEUX JEAN-MICHEL HOMME 76 0:59:04 04:55 12.19
83 710 HENRARD HERVÉ HOMME 77 0:59:19 04:57 12.14
84 815 PIRARD MAR]N HOMME 78 0:59:20 04:57 12.13
85 765 MOSSAY ALISSON DAME 7 0:59:23 04:57 12.12
86 682 HEEREN KEVIN HOMME 79 0:59:26 04:57 12.11
87 645 HENDRICK SYLVAIN HOMME 80 0:59:28 04:57 12.11
88 630 VANAS NATHALIE DAME 8 0:59:30 04:58 12.10
89 745 LEMAIRE MICHEL HOMME 81 0:59:34 04:58 12.09
90 600 DESARCY JEAN-FRANÇOIS HOMME 82 1:00:18 05:01 11.94
91 831 BLAISE MICHAEL HOMME 83 1:00:34 05:03 11.89
92 635 FERNANDEZ HERRERA BERNARD HOMME 84 1:00:59 05:05 11.81
93 667 DOSSERAY FREDERIC HOMME 85 1:01:10 05:06 11.77
94 825 CAHAY JULIEN HOMME 86 1:01:19 05:07 11.74
95 732 DUYCKAERTS ROBIN HOMME 87 1:01:40 05:08 11.68
96 733 HENRY ARTHUR HOMME 88 1:01:41 05:08 11.67
97 677 GALANT VINCENT HOMME 89 1:01:44 05:09 11.66
98 652 KLOMPKES YVES HOMME 90 1:01:56 05:10 11.63
99 606 VIATOUR CLAIRE DAME 9 1:01:57 05:10 11.62
100 833 BOULANGER EMMANUEL HOMME 91 1:01:59 05:10 11.62
101 650 HERCK PASCAL HOMME 92 1:02:07 05:11 11.59
102 690 LUXEN OLIVIER HOMME 93 1:02:11 05:11 11.58
103 619 BONTEMPS OLIVIER HOMME 94 1:02:24 05:12 11.54
104 706 DROUGUET PHILIPPE HOMME 95 1:02:30 05:13 11.52
105 704 SCHOONBROODT CHRISTOPHE HOMME 96 1:02:33 05:13 11.51
106 703 BASTIN PIERRE-YVES HOMME 97 1:02:35 05:13 11.50
107 657 MICHEL MARION DAME 10 1:02:37 05:13 11.50
108 747 DE WERGIFOSSE YVICHOU HOMME 98 1:02:59 05:15 11.43
109 830 FONZI SANDRINE DAME 11 1:03:12 05:16 11.39
110 840 MAHUTE VINCENT HOMME 99 1:03:19 05:17 11.37
111 651 BASTIN MARCEL HOMME 100 1:03:33 05:18 11.33
112 832 GAVRAY AUGUS]N HOMME 101 1:03:42 05:19 11.30
113 699 GOOD PHIL HOMME 102 1:04:01 05:20 11.25
114 828 VERLAINE DOMINIQUE HOMME 103 1:04:04 05:20 11.24
115 713 ZULIANI HUGOOOOOOOO HOMME 104 1:04:20 05:22 11.19
116 605 LUXEN ALPHONSE HOMME 105 1:04:29 05:22 11.17
117 818 DELREZ NOAH HOMME 106 1:05:07 05:26 11.06
118 647 SARLET FELIX HOMME 107 1:05:09 05:26 11.05
119 740 SAMEDI DANAE DAME 12 1:05:11 05:26 11.05
120 824 LAMBRETTE MARVINA CORDOULA HOMME 108 1:05:13 05:26 11.04
121 734 SCHWAIGER ARTHURO HOMME 109 1:05:25 05:27 11.01
122 712 GHARBI BRAHIM HOMME 110 1:05:33 05:28 10.98
123 829 SELARD MARC HOMME 111 1:05:37 05:28 10.97
124 753 BRUTINEL MURIELLE DAME 13 1:05:57 05:30 10.92
125 649 BARTELET TOEL HOMME 112 1:05:58 05:30 10.91
126 842 GOHY VALERIE DAME 14 1:06:03 05:30 10.90
127 730 BEAUVE ALICIA DAME 15 1:06:40 05:33 10.80
128 724 BEAUVE FREDERIC HOMME 113 1:06:41 05:33 10.80
129 721 PANNAYE SEBAS]EN HOMME 114 1:06:48 05:34 10.78
130 670 SIMON BRUNO HOMME 115 1:06:50 05:34 10.77
131 640 MATHIEU AYNNICK HOMME 116 1:07:25 05:37 10.68
132 722 BONNET QUEN]N HOMME 117 1:07:43 05:39 10.63
133 751 LUCA LUCAS HOMME 118 1:07:58 05:40 10.59
134 659 CRÉMER OLIVIER HOMME 119 1:08:17 05:41 10.54
135 658 PAWLIC ERIC HOMME 120 1:08:18 05:42 10.54
136 760 ANCION JPPPP HOMME 121 1:08:26 05:42 10.52
137 826 MARGUINIO DANIELLE DAME 16 1:08:52 05:44 10.45
138 736 DELDIME KEVIN HOMME 122 1:08:54 05:45 10.45
139 750 LEYENS OLIVIER HOMME 123 1:09:01 05:45 10.43
140 731 DUYCKAERTS GAETAN HOMME 124 1:09:07 05:46 10.42
141 663 HAVARD MARIE DAME 17 1:09:16 05:46 10.39
142 802 LENTZ FABRICE HOMME 125 1:09:19 05:47 10.39
143 632 WILIQUET NATHALIE DAME 18 1:09:23 05:47 10.38
144 661 LHERMITTE MICHEL HOMME 126 1:09:25 05:47 10.37
145 709 COURTIN PATRICK HOMME 127 1:09:27 05:47 10.37
146 803 DOUTRELEPONT TOM HOMME 128 1:09:37 05:48 10.34
147 759 MARECHAL BERNADEDE DAME 19 1:09:47 05:49 10.32
148 615 VERMIERDT MARC HOMME 129 1:09:51 05:49 10.31
149 626 LAMBERT LOLA DAME 20 1:09:55 05:50 10.30
150 809 GILSON EVELINE DAME 21 1:09:59 05:50 10.29
151 688 LEGRAND JEAN MARC HOMME 130 1:10:35 05:53 10.20
152 621 MARCHAL AMAURY HOMME 131 1:10:37 05:53 10.20
153 808 GILSON MARC HOMME 132 1:10:51 05:54 10.16
154 612 BERTRAM PETRA DAME 22 1:11:31 05:58 10.07
155 707 FINCK FRANCIS HOMME 133 1:11:35 05:58 10.06
156 727 COMPERE HUGO HOMME 134 1:12:13 06:01 9.97
157 728 CARABIN FLORINE DAME 23 1:12:14 06:01 9.97
158 801 LUCASSEN LAURENCE DAME 24 1:12:44 06:04 9.90
159 841 DE LEO LE]ZIA DAME 25 1:12:46 06:04 9.89
160 689 BRASSEUR RORO HOMME 135 1:13:11 06:06 9.84
161 609 JANSEN FRANK HOMME 136 1:13:31 06:08 9.79
162 655 VAN DER GEEST KOEN HOMME 137 1:13:34 06:08 9.79
163 681 GENTEN ANGELIQUE DAME 26 1:13:45 06:09 9.76
164 675 BRIALMONT IRENE DAME 27 1:13:55 06:10 9.74
165 601 DE WALEFFE SANDRA DAME 28 1:14:10 06:11 9.71
166 629 LAMBERT PATRICE HOMME 138 1:14:14 06:11 9.70
167 662 BOLSEE CECILE DAME 29 1:14:15 06:11 9.70
168 676 PIERRON ROLAND HOMME 139 1:14:20 06:12 9.69
169 715 DETHIER HENRI HOMME 140 1:14:35 06:13 9.65
170 822 VERVLOESEM MAXENCE HOMME 141 1:15:10 06:16 9.58
171 627 MASSIN JUS]NE DAME 30 1:15:36 06:18 9.52
172 674 JACOBS SANDRINE DAME 31 1:15:38 06:18 9.52
173 608 BEMELMANS ANNE DAME 32 1:15:41 06:18 9.51
174 835 DAHMEN VERO DAME 33 1:15:48 06:19 9.50
175 748 BOLSEE EVELYNE DAME 34 1:15:51 06:19 9.49
176 602 TOUSSAINT BERNARD HOMME 142 1:16:45 06:24 9.38
177 746 VERHOEVEN HEDWIGE DAME 35 1:16:47 06:24 9.38
178 723 MALCHAIR CATH DAME 36 1:17:29 06:27 9.29
179 836 LARUE CHRIS]NE DAME 37 1:17:54 06:29 9.24
180 684 XXX HOMME 143 1:18:51 06:34 9.13
181 720 BASTIN LAURA DAME 38 1:19:05 06:35 9.10
182 719 BASTIN ISABELLE DAME 39 1:19:07 06:36 9.10
183 625 LUCA GHISLAINE DAME 40 1:19:59 06:40 9.00
184 656 LABBÉ VIRGINIE DAME 41 1:21:56 06:50 8.79
185 764 BELMESSIERI SEVERINE DAME 42 1:22:07 06:51 8.77
186 691 MELISEN CHRISTELLE DAME 43 1:22:10 06:51 8.76
187 838 LOCIENO MIRELLA DAME 44 1:23:34 06:58 8.62
188 611 BERTRAM MARIA DAME 45 1:24:14 07:01 8.55
189 702 VAN LAAR CHRISTINE DAME 46 1:24:41 07:03 8.50
190 700 PAROTTE SIMONE DAME 47 1:24:43 07:04 8.50
191 617 JAMAR BOUSMANNE THE BRIDE TO BE DAME 48 1:24:56 07:05 8.48
192 633 SCHWAIGER PERRINE DAME 49 1:24:58 07:05 8.47
193 695 BIERIN LENA DAME 50 1:24:59 07:05 8.47